Stations météo

Publicité
Hurguada, Egypte (62463): Température de l'air & dewpoint: 20.03.2017 09:00:00 - 26.03.2017 09:00:00 (EET)Hurguada, Egypte (62463): Vitesse du vent: 20.03.2017 09:00:00 - 26.03.2017 09:00:00 (EET)Hurguada, Egypte (62463): Direction du vent: 20.03.2017 09:00:00 - 26.03.2017 09:00:00 (EET)Hurguada, Egypte (62463): reduced air pressure: 20.03.2017 09:00:00 - 26.03.2017 09:00:00 (EET)Hurguada, Egypte (62463): visibility: 20.03.2017 09:00:00 - 26.03.2017 09:00:00 (EET)
Date & Time tt [°C] td [°C] ff [km/h] ff [knt] dd ppp [hPa] vv [km]
26.03.2017 09:00:00 - - - - - - -
26.03.2017 08:00:00 20,0 -0,2 21 11 NNW 1015,7 10
26.03.2017 07:00:00 - - - - - - -
26.03.2017 06:00:00 - - - - - - -
26.03.2017 05:00:00 16,9 0,1 16 9 WNW 1014,2 10
26.03.2017 04:00:00 - - - - - - -
26.03.2017 03:00:00 - - - - - - -
26.03.2017 02:00:00 17,3 0,0 15 8 NW 1014,0 10
26.03.2017 01:00:00 - - - - - - -
26.03.2017 00:00:00 - - - - - - -
25.03.2017 23:00:00 19,5 0,0 21 11 WNW 1013,7 10
25.03.2017 22:00:00 - - - - - - -
25.03.2017 21:00:00 - - - - - - -
25.03.2017 20:00:00 21,0 6,2 29 16 N 1013,0 10
25.03.2017 19:00:00 - - - - - - -
25.03.2017 18:00:00 - - - - - - -
25.03.2017 17:00:00 24,2 9,7 26 14 N 1011,7 10
25.03.2017 16:00:00 - - - - - - -
25.03.2017 15:00:00 - - - - - - -
25.03.2017 14:00:00 26,0 6,6 21 11 N 1012,5 6
25.03.2017 13:00:00 - - - - - - -
25.03.2017 12:00:00 - - - - - - -
25.03.2017 11:00:00 22,6 6,6 29 16 N 1014,9 8
25.03.2017 10:00:00 - - - - - - -
25.03.2017 09:00:00 - - - - - - -
25.03.2017 08:00:00 18,2 6,2 26 14 NW 1014,9 10
25.03.2017 07:00:00 - - - - - - -
25.03.2017 06:00:00 - - - - - - -
25.03.2017 05:00:00 15,9 5,8 18 10 NW 1013,6 10
25.03.2017 04:00:00 - - - - - - -
25.03.2017 03:00:00 - - - - - - -
25.03.2017 02:00:00 17,4 4,7 22 12 NW 1013,3 10
25.03.2017 01:00:00 - - - - - - -
25.03.2017 00:00:00 - - - - - - -
24.03.2017 23:00:00 22,0 3,3 18 10 WNW 1013,1 10
24.03.2017 22:00:00 - - - - - - -
24.03.2017 21:00:00 - - - - - - -
24.03.2017 20:00:00 21,8 3,1 29 16 N 1013,0 7
24.03.2017 19:00:00 - - - - - - -
24.03.2017 18:00:00 - - - - - - -
24.03.2017 17:00:00 25,0 6,3 34 18 N 1011,2 7
24.03.2017 16:00:00 - - - - - - -
24.03.2017 15:00:00 - - - - - - -
24.03.2017 14:00:00 25,4 9,2 34 18 NNE 1011,5 4,0
24.03.2017 13:00:00 - - - - - - -
24.03.2017 12:00:00 - - - - - - -
24.03.2017 11:00:00 23,4 8,4 31 17 N 1013,4 7
24.03.2017 10:00:00 - - - - - - -
24.03.2017 09:00:00 - - - - - - -
24.03.2017 08:00:00 20,0 5,9 21 11 NNW 1013,0 10
24.03.2017 07:00:00 - - - - - - -
24.03.2017 06:00:00 - - - - - - -
24.03.2017 05:00:00 18,0 7,4 13 7 NW 1011,8 10
24.03.2017 04:00:00 - - - - - - -
24.03.2017 03:00:00 - - - - - - -
24.03.2017 02:00:00 19,6 7,4 18 10 NW 1011,3 6
24.03.2017 01:00:00 - - - - - - -
24.03.2017 00:00:00 - - - - - - -
23.03.2017 23:00:00 22,1 2,7 11 6 WNW 1010,8 6
23.03.2017 22:00:00 - - - - - - -
23.03.2017 21:00:00 - - - - - - -
23.03.2017 20:00:00 23,0 9,4 9 5 NNW 1009,6 3,0
23.03.2017 19:00:00 - - - - - - -
23.03.2017 18:00:00 - - - - - - -
23.03.2017 17:00:00 26,2 6,7 22 12 N 1007,3 6
23.03.2017 16:00:00 - - - - - - -
23.03.2017 15:00:00 - - - - - - -
23.03.2017 14:00:00 - - 21 11 NE 1007,2 4,0
23.03.2017 13:00:00 - - - - - - -
23.03.2017 12:00:00 - - - - - - -
23.03.2017 11:00:00 - - - - - - -
23.03.2017 10:00:00 - - - - - - -
23.03.2017 09:00:00 - - - - - - -
23.03.2017 08:00:00 21,0 4,9 4 2 NNW 1008,4 4,0
23.03.2017 07:00:00 - - - - - - -
23.03.2017 06:00:00 - - - - - - -
23.03.2017 05:00:00 - - - - - - -
23.03.2017 04:00:00 - - - - - - -
23.03.2017 03:00:00 - - - - - - -
23.03.2017 02:00:00 18,7 8,6 0 0 N 1006,4 10
23.03.2017 01:00:00 - - - - - - -
23.03.2017 00:00:00 - - - - - - -
22.03.2017 23:00:00 20,6 13,3 2 1 SSW 1009,0 10
22.03.2017 22:00:00 - - - - - - -
22.03.2017 21:00:00 - - - - - - -
22.03.2017 20:00:00 22,1 8,2 5 3 S 1008,2 10
22.03.2017 19:00:00 - - - - - - -
22.03.2017 18:00:00 - - - - - - -
22.03.2017 17:00:00 23,2 8,1 5 3 ESE 1008,2 10
22.03.2017 16:00:00 - - - - - - -
22.03.2017 15:00:00 - - - - - - -
22.03.2017 14:00:00 24,7 0,2 8 4 NNE 1008,6 10
22.03.2017 13:00:00 - - - - - - -
22.03.2017 12:00:00 - - - - - - -
22.03.2017 11:00:00 23,5 -1,2 9 5 NNW 1010,7 10
22.03.2017 10:00:00 - - - - - - -
22.03.2017 09:00:00 - - - - - - -
22.03.2017 08:00:00 20,6 -1,9 5 3 NNW 1011,4 10
22.03.2017 07:00:00 - - - - - - -
22.03.2017 06:00:00 - - - - - - -
22.03.2017 05:00:00 19,1 -1,3 8 4 W 1010,1 10
22.03.2017 04:00:00 - - - - - - -
22.03.2017 03:00:00 - - - - - - -
22.03.2017 02:00:00 18,6 1,1 8 4 NNW 1011,1 10
22.03.2017 01:00:00 - - - - - - -
22.03.2017 00:00:00 - - - - - - -
21.03.2017 23:00:00 18,4 5,2 5 3 WNW 1012,2 10
21.03.2017 22:00:00 - - - - - - -
21.03.2017 21:00:00 - - - - - - -
21.03.2017 20:00:00 21,3 9,2 4 2 NNW 1012,5 10
21.03.2017 19:00:00 - - - - - - -
21.03.2017 18:00:00 - - - - - - -
21.03.2017 17:00:00 23,5 6,7 5 3 ENE 1012,1 10
21.03.2017 16:00:00 - - - - - - -
21.03.2017 15:00:00 - - - - - - -
21.03.2017 14:00:00 26,1 2,6 18 10 N 1013,2 10
21.03.2017 13:00:00 - - - - - - -
21.03.2017 12:00:00 - - - - - - -
21.03.2017 11:00:00 24,6 0,1 18 10 N 1016,7 10
21.03.2017 10:00:00 - - - - - - -
21.03.2017 09:00:00 - - - - - - -
21.03.2017 08:00:00 20,7 2,5 15 8 NW 1017,1 10
21.03.2017 07:00:00 - - - - - - -
21.03.2017 06:00:00 - - - - - - -
21.03.2017 05:00:00 16,2 0,1 13 7 WNW 1016,0 10
21.03.2017 04:00:00 - - - - - - -
21.03.2017 03:00:00 - - - - - - -
21.03.2017 02:00:00 16,6 -0,2 11 6 WNW 1015,5 10
21.03.2017 01:00:00 - - - - - - -
21.03.2017 00:00:00 - - - - - - -
20.03.2017 23:00:00 18,1 -0,7 13 7 WNW 1016,6 10
20.03.2017 22:00:00 - - - - - - -
20.03.2017 21:00:00 - - - - - - -
20.03.2017 20:00:00 20,7 -0,1 21 11 N 1016,3 10
20.03.2017 19:00:00 - - - - - - -
20.03.2017 18:00:00 - - - - - - -
20.03.2017 17:00:00 24,4 -0,7 29 16 N 1015,5 10
20.03.2017 16:00:00 - - - - - - -
20.03.2017 15:00:00 - - - - - - -
20.03.2017 14:00:00 24,7 2,8 32 17 N 1015,5 10
20.03.2017 13:00:00 - - - - - - -
20.03.2017 12:00:00 - - - - - - -
20.03.2017 11:00:00 21,9 3,5 26 14 N 1017,7 10
20.03.2017 10:00:00 - - - - - - -
20.03.2017 09:00:00 - - - - - - -

tt = Température de l'air
td = dewpoint
ff = Vitesse du vent
dd = Direction du vent
ppp = reduced air pressure
vv = visibility

stations d'obs. à proximité